Weather History for KLBB - February, 2014

Change the Weather History Date:

Friday, February 14, 2014

  Actual Average Record
Temperature  
Mean Temperature 50 °F 44 °F  
Max Temperature 63 °F 59 °F 87 °F (1979)
Min Temperature 37 °F 30 °F 12 °F (2004)
Degree Days  
Heating Degree Days 15 21  
Month to date heating degree days 437 309  
Since 1 July heating degree days 2665 2474  
Cooling Degree Days 0 0  
Month to date cooling degree days 0 0  
Year to date cooling degree days 0 0  
Moisture  
Dew Point 23 °F    
Average Humidity 38    
Maximum Humidity 54    
Minimum Humidity 22    
Precipitation  
Precipitation 0.00 in 0.03 in 0.45 in (1969)
Month to date precipitation 0.16 0.38  
Year to date precipitation 0.16 1.03  
Snow  
Snow 0.00 in 0.00 in 2.20 in (2007)
Month to date snowfall 1.8 1.0  
Since 1 July snowfall 4.2 6.8  
Snow Depth 0.00 in    
Sea Level Pressure  
Sea Level Pressure 29.95 in    
Wind  
Wind Speed 13 mph (NE)    
Max Wind Speed 28 mph    
Max Gust Speed 34 mph    
Visibility 10 miles    
Events      
T = Trace of Precipitation, MM = Missing Value Source: NWS Daily Summary

Daily Weather History Graph

Daily Weather History Graph

Search for Another Location

Airport or City:

Trip Planner

Search our weather history database for the weather conditions in past years. The results will help you decide how hot, cold, wet, or windy it might be!

Date:

Astronomy

Feb. 14, 2014 Rise Set
Actual Time 7:32 AM CST 6:30 PM CST
Civil Twilight 7:06 AM CST 6:56 PM CST
Nautical Twilight 6:37 AM CST 7:25 PM CST
Astronomical Twilight 6:08 AM CST 7:54 PM CST
Moon 6:33 PM CST (2/14) 7:02 AM CST (2/14)
Length of Visible Light 11h 49m
Length of Day
10h 58m
Full, 100% of the Moon is Illuminated
Feb 14
Full
Feb 14
Full
Feb 22
Last Quarter
Mar 1
New
Mar 8
First Quarter

Hourly Weather History & Observations

Time (CST) Temp. Windchill Dew Point Humidity Pressure Visibility Wind Dir Wind Speed Gust Speed Precip Events Conditions
12:53 AM 42.1 °F 36.6 °F 25.0 °F 51% 29.76 in 10.0 mi SW 9.2 mph - N/A   Scattered Clouds
1:53 AM 39.9 °F 33.9 °F 25.0 °F 55% 29.76 in 10.0 mi WSW 9.2 mph - N/A   Scattered Clouds
2:53 AM 39.9 °F 35.1 °F 24.1 °F 53% 29.74 in 10.0 mi West 6.9 mph - N/A   Mostly Cloudy
3:53 AM 39.9 °F 32.9 °F 24.1 °F 53% 29.72 in 10.0 mi West 11.5 mph - N/A   Mostly Cloudy
4:53 AM 45.0 °F 38.5 °F 24.1 °F 44% 29.74 in 10.0 mi WNW 13.8 mph - N/A   Scattered Clouds
5:53 AM 41.0 °F 34.7 °F 23.0 °F 49% 29.78 in 10.0 mi NW 10.4 mph - N/A   Partly Cloudy
6:53 AM 37.9 °F 30.9 °F 23.0 °F 55% 29.83 in 10.0 mi WNW 10.4 mph - N/A   Partly Cloudy
7:53 AM 39.0 °F 32.8 °F 23.0 °F 53% 29.89 in 10.0 mi NNW 9.2 mph - N/A   Partly Cloudy
8:53 AM 51.1 °F - 25.0 °F 36% 29.92 in 10.0 mi North 12.7 mph - N/A   Partly Cloudy
9:53 AM 57.0 °F - 25.0 °F 29% 29.96 in 10.0 mi NNE 24.2 mph 29.9 mph N/A   Scattered Clouds
10:53 AM 57.0 °F - 27.0 °F 32% 30.00 in 10.0 mi NNE 21.9 mph 31.1 mph N/A   Partly Cloudy
11:53 AM 59.0 °F - 28.0 °F 31% 30.03 in 10.0 mi NNE 21.9 mph 29.9 mph N/A   Mostly Cloudy
12:53 PM 61.0 °F - 28.0 °F 29% 30.01 in 10.0 mi NNE 19.6 mph 29.9 mph N/A   Mostly Cloudy
1:53 PM 61.0 °F - 27.0 °F 27% 30.00 in 10.0 mi NE 19.6 mph 28.8 mph N/A   Mostly Cloudy
2:53 PM 61.0 °F - 24.1 °F 24% 30.00 in 10.0 mi NE 20.7 mph 27.6 mph N/A   Clear
3:53 PM 61.0 °F - 21.9 °F 22% 30.01 in 10.0 mi ENE 15.0 mph - N/A   Mostly Cloudy
4:53 PM 59.0 °F - 21.0 °F 23% 30.02 in 10.0 mi ENE 9.2 mph - N/A   Mostly Cloudy
5:53 PM 55.0 °F - 21.0 °F 27% 30.04 in 10.0 mi East 9.2 mph - N/A   Mostly Cloudy
6:53 PM 50.0 °F - 19.0 °F 29% 30.06 in 10.0 mi East 8.1 mph - N/A   Mostly Cloudy
7:53 PM 43.0 °F 38.2 °F 18.0 °F 37% 30.09 in 10.0 mi ESE 8.1 mph - N/A   Mostly Cloudy
8:53 PM 41.0 °F 35.2 °F 18.0 °F 40% 30.06 in 10.0 mi SE 9.2 mph - N/A   Overcast
9:53 PM 42.1 °F 37.7 °F 19.0 °F 40% 30.05 in 10.0 mi SE 6.9 mph - N/A   Overcast
10:53 PM 41.0 °F 36.4 °F 19.9 °F 43% 30.05 in 10.0 mi SSE 6.9 mph - N/A   Mostly Cloudy
11:53 PM 39.9 °F 34.5 °F 19.9 °F 45% 30.05 in 10.0 mi SE 8.1 mph - N/A   Mostly Cloudy